Regional Weather Roundup
Issued by NWS Sioux Falls, SD

Home | Current Version | Previous Version | Graphics & Text | Print | Product List | Glossary On
Versions: 1 2 3 4 5 6 7 8 9 10 11 12 13 14 15 16 17 18 19 20 21 22 23 24 25 26 27 28 29 30 31 32 33 34 35 36 37 38 39 40 41 42 43 44 45 46 47 48 49 50
000
ASUS43 KFSD 210110
RWRFSD

WEATHER ROUNDUP FOR SE SOUTH DAKOTA/SW MINNESOTA/NW IOWA
NATIONAL WEATHER SERVICE SIOUX FALLS SD
800 PM CDT SUN APR 20 2014

NOTE: "FAIR" INDICATES FEW OR NO CLOUDS BELOW 12,000 FEET WITH NO
SIGNIFICANT WEATHER AND OR OBSTRUCTIONS TO VISIBILITY.


SDZ038>040-050-052>070-210200-
SOUTHEAST SOUTH DAKOTA

CITY           SKY/WX    TMP DP  RH WIND       PRES   REMARKS
CHAMBERLAIN      N/A     73  44  35 E8        29.83S
HURON          PTCLDY    75  40  28 E5        29.83F
MADISON        FAIR      72  41  33 SE6       29.86F
MITCHELL       CLEAR     75  44  33 SE6       29.84S
SIOUX FALLS    MOCLDY    73  49  42 E3        29.85F
WINNER         FAIR      75  44  33 S8        29.83S
YANKTON        PTCLDY    77  52  41 S3        29.85S
$$

MNZ071-072-080-081-089-090-097-098-210200-
SOUTHWEST MINNESOTA

CITY           SKY/WX    TMP DP  RH WIND       PRES   REMARKS
FAIRMONT       PTCLDY    70  54  56 SE13      29.92R
JACKSON        PTCLDY    73  50  43 E5        29.89S
LUVERNE        PTCLDY    73  50  43 E5        29.87S
MARSHALL       PTCLDY    70  43  37 E8        29.89S
MONTEVIDEO     PTCLDY    64  43  45 E9        29.92F
PIPESTONE      CLEAR     73  46  38 E8        29.88S
REDWOOD FALLS  MOCLDY    70  47  43 E6        29.89F
TRACY          PTCLDY    69  49  49 E8        29.89S
WINDOM         PTCLDY    73  52  46 CALM      29.89S
WORTHINGTON    PTCLDY    73  50  43 E5        29.91R
$$

IAZ001>003-012>014-020>022-031-032-NEZ013-014-SDZ071-210200-
NORTHWEST IOWA

CITY           SKY/WX    TMP DP  RH WIND       PRES   REMARKS
CHEROKEE       CLOUDY    71  52  49 SW6       29.87R
DENISON        CLOUDY    68  54  60 SW20G32   29.92R
ESTHERVILLE    MOCLDY    70  59  68 E12       29.89R
LE MARS        DRIZZLE   68  57  68 S6G14     29.88R
ORANGE CITY    LGT RAIN  70  55  60 S13       29.87S
SHELDON        CLOUDY    70  52  52 SE15      29.87R
SIOUX CITY     CLOUDY    67  60  78 SW6       29.87S
SPENCER        TSTM      67  59  75 W15       29.90R
STORM LAKE     MOCLDY    72  52  49 W6        29.89R
$$

ABBREVIATIONS USED IN REMARKS
   TC - TEMPERATURE IN CELSIUS
  WCI - WIND CHILL INDEX
   HX - HEAT INDEX
  VSB - VISIBILITY




USA.gov is the U.S. government's official web portal to all federal, state and local government web resources and services.